When you browse on this site, cookies collect data to enhance your experience and personalize the content and advertising you see.
Visit our Privacy Policy to learn more. By continuing to use the site, you agree to this use of cookies and data.
  • In Portugal
  • List of Countries
  • For 7 days
  • Water Temperature
  • Weather Map
  • Weather Widgets
  • user-avatar
    Login

    Hourly Weather Manresa

    Today, 19 November, Tuesday

    Time Temperature Precipitation Wind Pressure Humidity
    00:00 +4°C° 0 mm 2 mps 733 mmHg 60%
    01:00 +4°C° 0 mm 2 mps 733 mmHg 59%
    02:00 +3°C° 0 mm 2 mps 733 mmHg 58%
    03:00 +4°C° 0 mm 1 mps 732 mmHg 57%
    04:00 +3°C° 0 mm 2 mps 733 mmHg 60%
    05:00 +2°C° 0 mm 2 mps 733 mmHg 62%
    06:00 +2°C° 0 mm 2 mps 733 mmHg 64%
    07:00 +3°C° 0 mm 2 mps 733 mmHg 59%
    08:00 +6°C° 0 mm 1 mps 733 mmHg 54%
    09:00 +7°C° 0 mm 1 mps 733 mmHg 48%
    10:00 +9°C° 0 mm 1 mps 733 mmHg 44%
    11:00 +10°C° 0 mm 1 mps 733 mmHg 40%
    12:00 +11°C° 0 mm 1 mps 733 mmHg 37%
    13:00 +11°C° 0 mm 1 mps 733 mmHg 39%
    14:00 +10°C° 0 mm 2 mps 733 mmHg 42%
    15:00 +10°C° 0 mm 2 mps 732 mmHg 44%
    16:00 +8°C° 0 mm 2 mps 733 mmHg 52%
    17:00 +8°C° 0 mm 1 mps 733 mmHg 59%
    18:00 +6°C° 0 mm 1 mps 733 mmHg 67%
    19:00 +6°C° 0 mm 1 mps 733 mmHg 67%
    20:00 +5°C° 0 mm 1 mps 733 mmHg 68%
    21:00 +5°C° 0 mm 1 mps 733 mmHg 68%
    22:00 +5°C° 0 mm 1 mps 733 mmHg 68%
    23:00 +5°C° 0 mm 1 mps 733 mmHg 68%

    Tomorrow, 20 November, Wednesday

    Time Temperature Precipitation Wind Pressure Humidity
    00:00 +4°C° 0 mm 1 mps 733 mmHg 68%
    01:00 +4°C° 0 mm 1 mps 732 mmHg 68%
    02:00 +4°C° 0 mm 1 mps 732 mmHg 67%
    03:00 +4°C° 0 mm 1 mps 732 mmHg 67%
    04:00 +4°C° 0 mm 1 mps 731 mmHg 66%
    05:00 +4°C° 0 mm 1 mps 731 mmHg 66%
    06:00 +4°C° 0 mm 1 mps 731 mmHg 65%
    07:00 +5°C° 0 mm 1 mps 731 mmHg 61%
    08:00 +7°C° 0 mm 1 mps 731 mmHg 56%
    09:00 +8°C° 0 mm 1 mps 732 mmHg 52%
    10:00 +9°C° 0 mm 1 mps 731 mmHg 51%
    11:00 +10°C° 0 mm 1 mps 731 mmHg 51%
    12:00 +12°C° 0 mm 2 mps 731 mmHg 50%
    13:00 +12°C° 0 mm 2 mps 730 mmHg 54%
    14:00 +12°C° 0 mm 2 mps 730 mmHg 57%
    15:00 +12°C° 0 mm 2 mps 729 mmHg 61%
    16:00 +10°C° 0 mm 2 mps 729 mmHg 67%
    17:00 +9°C° 0 mm 1 mps 729 mmHg 74%
    18:00 +8°C° 0 mm 1 mps 729 mmHg 80%
    19:00 +8°C° 0 mm 1 mps 729 mmHg 80%
    20:00 +8°C° 0 mm 1 mps 729 mmHg 81%
    21:00 +8°C° 0 mm 1 mps 729 mmHg 81%
    22:00 +7°C° 0 mm 1 mps 729 mmHg 82%
    23:00 +7°C° 0 mm 1 mps 729 mmHg 84%

    Day after tomorrow, 21 November, Thursday

    Time Temperature Precipitation Wind Pressure Humidity
    00:00 +6°C° 0 mm 1 mps 729 mmHg 85%
    01:00 +6°C° 0 mm 1 mps 728 mmHg 84%
    02:00 +6°C° 0 mm 1 mps 728 mmHg 83%
    03:00 +6°C° 0 mm 1 mps 728 mmHg 83%
    04:00 +6°C° 0 mm 1 mps 728 mmHg 82%
    05:00 +6°C° 0 mm 1 mps 728 mmHg 82%
    06:00 +6°C° 0 mm 1 mps 728 mmHg 81%
    07:00 +7°C° 0 mm 1 mps 728 mmHg 77%
    08:00 +8°C° 0 mm 1 mps 728 mmHg 72%
    09:00 +9°C° 0 mm 1 mps 729 mmHg 68%
    10:00 +9°C° 0 mm 2 mps 729 mmHg 65%
    11:00 +11°C° 0 mm 3 mps 729 mmHg 62%
    12:00 +12°C° 0 mm 4 mps 729 mmHg 59%
    13:00 +12°C° 0 mm 4 mps 728 mmHg 59%
    14:00 +11°C° 0 mm 4 mps 728 mmHg 59%
    15:00 +11°C° 0 mm 4 mps 728 mmHg 59%
    16:00 +10°C° 0 mm 4 mps 728 mmHg 65%
    17:00 +9°C° 0 mm 3 mps 729 mmHg 71%
    18:00 +8°C° 0 mm 2 mps 729 mmHg 77%
    19:00 +7°C° 0 mm 2 mps 729 mmHg 77%
    20:00 +8°C° 0 mm 1 mps 729 mmHg 78%
    21:00 +7°C° 0 mm 1 mps 729 mmHg 78%
    22:00 +7°C° 0 mm 1 mps 729 mmHg 79%
    23:00 +7°C° 0 mm 1 mps 729 mmHg 79%

    22 November, Friday

    Time Temperature Precipitation Wind Pressure Humidity
    00:00 +6°C° 0 mm 1 mps 729 mmHg 80%
    01:00 +6°C° 0 mm 1 mps 729 mmHg 80%
    02:00 +6°C° 0 mm 1 mps 728 mmHg 80%
    03:00 +5°C° 0 mm 0 mps 728 mmHg 80%
    04:00 +6°C° 0 mm 1 mps 728 mmHg 79%
    05:00 +6°C° 0 mm 1 mps 727 mmHg 78%
    06:00 +6°C° 0 mm 1 mps 727 mmHg 78%
    07:00 +7°C° 0 mm 1 mps 727 mmHg 73%
    08:00 +9°C° 0 mm 1 mps 727 mmHg 69%
    09:00 +10°C° 0 mm 1 mps 727 mmHg 65%
    10:00 +11°C° 0 mm 1 mps 726 mmHg 66%
    11:00 +12°C° 0 mm 2 mps 726 mmHg 67%
    12:00 +12°C° 0 mm 3 mps 725 mmHg 68%
    13:00 +12°C° 1 mm 2 mps 724 mmHg 76%
    14:00 +10°C° 1 mm 2 mps 723 mmHg 85%
    15:00 +10°C° 1 mm 2 mps 722 mmHg 93%
    16:00 +10°C° 2.1 mm 2 mps 722 mmHg 94%
    17:00 +10°C° 2.1 mm 3 mps 721 mmHg 95%
    18:00 +11°C° 2.1 mm 3 mps 721 mmHg 96%
    19:00 +11°C° 1 mm 4 mps 721 mmHg 95%
    20:00 +11°C° 1 mm 4 mps 720 mmHg 94%
    21:00 +11°C° 1 mm 4 mps 720 mmHg 94%
    22:00 +11°C° 0.5 mm 3 mps 720 mmHg 93%
    23:00 +10°C° 0.5 mm 2 mps 719 mmHg 92%

    23 November, Saturday

    Time Temperature Precipitation Wind Pressure Humidity
    00:00 +10°C° 0.5 mm 2 mps 719 mmHg 92%
    01:00 +9°C° 0 mm 2 mps 719 mmHg 91%
    02:00 +9°C° 0 mm 2 mps 719 mmHg 90%
    03:00 +8°C° 0 mm 2 mps 718 mmHg 89%
    04:00 +8°C° 0 mm 2 mps 719 mmHg 88%
    05:00 +8°C° 0 mm 3 mps 719 mmHg 87%
    06:00 +8°C° 0 mm 3 mps 720 mmHg 86%
    07:00 +8°C° 0 mm 3 mps 720 mmHg 83%
    08:00 +9°C° 0 mm 3 mps 721 mmHg 80%
    09:00 +9°C° 0 mm 3 mps 722 mmHg 77%
    10:00 +10°C° 0.3 mm 3 mps 722 mmHg 74%
    11:00 +12°C° 0.3 mm 2 mps 722 mmHg 72%
    12:00 +12°C° 0.3 mm 2 mps 723 mmHg 69%
    13:00 +12°C° 0.7 mm 2 mps 723 mmHg 71%
    14:00 +11°C° 0.7 mm 1 mps 724 mmHg 73%
    15:00 +11°C° 0.7 mm 1 mps 724 mmHg 74%
    16:00 +10°C° 0 mm 1 mps 725 mmHg 78%
    17:00 +9°C° 0 mm 1 mps 726 mmHg 81%
    18:00 +7°C° 0 mm 2 mps 726 mmHg 85%
    19:00 +7°C° 0 mm 2 mps 727 mmHg 84%
    20:00 +6°C° 0 mm 2 mps 727 mmHg 84%
    21:00 +6°C° 0 mm 2 mps 728 mmHg 84%
    22:00 +6°C° 0 mm 2 mps 728 mmHg 83%
    23:00 +6°C° 0 mm 2 mps 729 mmHg 83%

    24 November, Sunday

    Time Temperature Precipitation Wind Pressure Humidity
    00:00 +6°C° 0 mm 2 mps 729 mmHg 82%
    01:00 +6°C° 0 mm 2 mps 729 mmHg 81%
    02:00 +5°C° 0 mm 2 mps 730 mmHg 80%
    03:00 +5°C° 0 mm 2 mps 730 mmHg 79%
    04:00 +5°C° 0 mm 2 mps 730 mmHg 79%
    05:00 +5°C° 0 mm 2 mps 731 mmHg 78%
    06:00 +5°C° 0 mm 2 mps 731 mmHg 77%
    07:00 +6°C° 0 mm 2 mps 732 mmHg 73%
    08:00 +7°C° 0 mm 2 mps 733 mmHg 69%
    09:00 +8°C° 0 mm 2 mps 734 mmHg 65%
    10:00 +10°C° 0 mm 2 mps 734 mmHg 59%
    11:00 +12°C° 0 mm 1 mps 734 mmHg 53%
    12:00 +14°C° 0 mm 1 mps 734 mmHg 46%
    13:00 +13°C° 0 mm 2 mps 734 mmHg 49%
    14:00 +13°C° 0 mm 2 mps 734 mmHg 51%
    15:00 +13°C° 0 mm 2 mps 734 mmHg 53%
    16:00 +12°C° 0 mm 1 mps 734 mmHg 59%
    17:00 +10°C° 0 mm 1 mps 734 mmHg 64%
    18:00 +8°C° 0 mm 1 mps 735 mmHg 70%
    19:00 +8°C° 0 mm 1 mps 735 mmHg 71%
    20:00 +8°C° 0 mm 1 mps 735 mmHg 71%
    21:00 +8°C° 0 mm 1 mps 735 mmHg 72%
    22:00 +7°C° 0 mm 1 mps 735 mmHg 72%
    23:00 +7°C° 0 mm 1 mps 735 mmHg 73%
    Show more